User: anonymous   Login
Location: Unspecified
(0.0000°N, 0.0000°E)
Time: 06:52:52
(UTC+00:00)
Language:

USA 8 - Orbit

View from above orbital plane
View from above orbital plane
View from above satellite
View from above satellite

Ground track
Ground track

The orbit data is extracted from the following two-line orbital elements,

1 15543U 85010B   17084.40745571 0.00000000  00000-0  00000-0 0    08
2 15543  17.6053 349.8218 0136325 314.5898  44.3176  0.99809128    06
Epoch (UTC): 25 March 2017 09:46:44
Eccentricity: 0.0136325
inclination: 17.6053°
perigee height: 35340 km
apogee height: 36493 km
right ascension of ascending node: 349.8218°
argument of perigee: 314.5898°
revolutions per day: 0.99809128
mean anomaly at epoch: 44.3176°
orbit number at epoch: 0

The dashed part of the orbit path shows where the satellite is in the earth's shadow,  

DLR